| time (UTC) | temp F | wind direction | speed MPH | gust MPH | rain 1hr in | rain 24hr in | rain mn in | humidity % | barometer mb |
| 20260510142450 | 56 | 7 | 3.0 | 5.0 | 0.00 | 0.00 | 0.00 | 37 | |
| 20260510141942 | 57 | 121 | 3.0 | 6.0 | 0.00 | 0.00 | 0.00 | 37 | |
| 20260510141438 | 57 | 248 | 1.0 | 5.0 | 0.00 | 0.00 | 0.00 | 40 | |
| 20260510140935 | 57 | 291 | 2.0 | 3.0 | 0.00 | 0.00 | 0.00 | 39 | |
| 20260510140426 | 56 | 273 | 1.0 | 3.0 | 0.00 | 0.00 | 0.00 | 39 | |
| 20260510135924 | 56 | 235 | 1.0 | 2.0 | 0.00 | 0.00 | 0.00 | 41 | |
| 20260510135415 | 55 | 279 | 2.0 | 2.0 | 0.00 | 0.00 | 0.00 | 42 | |
| 20260510134913 | 56 | 46 | 1.0 | 2.0 | 0.00 | 0.00 | 0.00 | 40 | |
| 20260510134409 | 55 | 231 | 0.0 | 2.0 | 0.00 | 0.00 | 0.00 | 40 | |
| 20260510133905 | 56 | 223 | 3.0 | 3.0 | 0.00 | 0.00 | 0.00 | 41 | |
| 20260510133402 | 55 | 63 | 0.0 | 2.0 | 0.00 | 0.00 | 0.00 | 41 | |
| 20260510132857 | 55 | 276 | 1.0 | 1.0 | 0.00 | 0.00 | 0.00 | 42 | |
| 20260510132356 | 55 | 296 | 0.0 | 1.0 | 0.00 | 0.00 | 0.00 | 41 | |
| 20260510131852 | 53 | 226 | 0.0 | 1.0 | 0.00 | 0.00 | 0.00 | 43 | |
| 20260510131350 | 54 | 291 | 1.0 | 2.0 | 0.00 | 0.00 | 0.00 | 44 | |
| 20260510130846 | 54 | 234 | 1.0 | 2.0 | 0.00 | 0.00 | 0.00 | 44 | |
| 20260510130343 | 53 | 273 | 1.0 | 3.0 | 0.00 | 0.00 | 0.00 | 44 | |
| 20260510125840 | 53 | 317 | 1.0 | 3.0 | 0.00 | 0.00 | 0.00 | 45 | |
| 20260510125336 | 54 | 291 | 1.0 | 1.0 | 0.00 | 0.00 | 0.00 | 44 | |
| 20260510124834 | 53 | 316 | 0.0 | 1.0 | 0.00 | 0.00 | 0.00 | 46 | |
| 20260510124330 | 53 | 259 | 1.0 | 1.0 | 0.00 | 0.00 | 0.00 | 46 | |
| 20260510123826 | 52 | 243 | 0.0 | 1.0 | 0.00 | 0.00 | 0.00 | 48 | |
| 20260510123321 | 52 | 289 | 0.0 | 1.0 | 0.00 | 0.00 | 0.00 | 49 | |
| 20260510122818 | 52 | 31 | 0.0 | 2.0 | 0.00 | 0.00 | 0.00 | 49 | |
| 20260510122314 | 51 | 240 | 0.0 | 0.0 | 0.00 | 0.00 | 0.00 | 53 | |
| 20260510121810 | 50 | 289 | 1.0 | 1.0 | 0.00 | 0.00 | 0.00 | 53 | |
| 20260510121308 | 50 | 286 | 2.0 | 2.0 | 0.00 | 0.00 | 0.00 | 54 | |
| 20260510120805 | 50 | 310 | 2.0 | 3.0 | 0.00 | 0.00 | 0.00 | 54 | |
| 20260510120302 | 50 | 300 | 0.0 | 1.0 | 0.00 | 0.00 | 0.00 | 56 | |
| 20260510115757 | 49 | 287 | 1.0 | 2.0 | 0.00 | 0.00 | 0.00 | 58 | |
| 20260510115255 | 48 | 322 | 1.0 | 3.0 | 0.00 | 0.00 | 0.00 | 58 | |
| 20260510114750 | 47 | 302 | 1.0 | 2.0 | 0.00 | 0.00 | 0.00 | 61 | |
| 20260510114247 | 47 | 289 | 2.0 | 2.0 | 0.00 | 0.00 | 0.00 | 62 | |
| 20260510113742 | 46 | 268 | 0.0 | 1.0 | 0.00 | 0.00 | 0.00 | 63 | |
| 20260510113240 | 46 | 252 | 1.0 | 3.0 | 0.00 | 0.00 | 0.00 | 65 | |
| 20260510112736 | 45 | 290 | 1.0 | 2.0 | 0.00 | 0.00 | 0.00 | 67 | |
| 20260510112233 | 44 | 271 | 0.0 | 1.0 | 0.00 | 0.00 | 0.00 | 68 | |
| 20260510111728 | 44 | 256 | 0.0 | 0.0 | 0.00 | 0.00 | 0.00 | 69 | |
| 20260510111226 | 44 | 257 | 0.0 | 0.0 | 0.00 | 0.00 | 0.00 | 69 | |
| 20260510110725 | 44 | 259 | 0.0 | 0.0 | 0.00 | 0.00 | 0.00 | 70 | |
| 20260510110224 | 44 | 260 | 0.0 | 0.0 | 0.00 | 0.00 | 0.00 | 69 | |
| 20260510105723 | 43 | 271 | 0.0 | 2.0 | 0.00 | 0.00 | 0.00 | 71 | |
| 20260510105218 | 43 | 261 | 0.0 | 0.0 | 0.00 | 0.00 | 0.00 | 72 | |
| 20260510104715 | 43 | 260 | 0.0 | 0.0 | 0.00 | 0.00 | 0.00 | 72 | |
| 20260510104212 | 43 | 269 | 0.0 | 1.0 | 0.00 | 0.00 | 0.00 | 72 | |
| 20260510103708 | 43 | 262 | 0.0 | 1.0 | 0.00 | 0.00 | 0.00 | 71 | |
| 20260510103206 | 43 | 238 | 0.0 | 0.0 | 0.00 | 0.00 | 0.00 | 70 | |
| 20260510102700 | 44 | 237 | 0.0 | 0.0 | 0.00 | 0.00 | 0.00 | 69 | |
| 20260510102156 | 44 | 236 | 0.0 | 0.0 | 0.00 | 0.00 | 0.00 | 69 | |
| 20260510101654 | 44 | 252 | 0.0 | 1.0 | 0.00 | 0.00 | 0.00 | 70 | |
| 20260510101152 | 44 | 263 | 0.0 | 1.0 | 0.00 | 0.00 | 0.00 | 71 | |
| 20260510100652 | 44 | 269 | 1.0 | 1.0 | 0.00 | 0.00 | 0.00 | 72 | |
| 20260510100150 | 44 | 260 | 0.0 | 0.0 | 0.00 | 0.00 | 0.00 | 74 | |
| 20260510095646 | 44 | 264 | 0.0 | 1.0 | 0.00 | 0.00 | 0.00 | 76 | |
| 20260510095141 | 44 | 269 | 0.0 | 0.0 | 0.00 | 0.00 | 0.00 | 77 | |
| 20260510094640 | 44 | 261 | 0.0 | 1.0 | 0.00 | 0.00 | 0.00 | 78 | |
| 20260510094136 | 44 | 267 | 0.0 | 0.0 | 0.00 | 0.00 | 0.00 | 79 | |
| 20260510093632 | 44 | 259 | 0.0 | 1.0 | 0.00 | 0.00 | 0.00 | 79 | |
| 20260510093130 | 44 | 267 | 0.0 | 1.0 | 0.00 | 0.00 | 0.00 | 78 | |
| 20260510092626 | 44 | 267 | 0.0 | 1.0 | 0.00 | 0.00 | 0.00 | 78 | |
| 20260510092121 | 44 | 261 | 0.0 | 0.0 | 0.00 | 0.00 | 0.00 | 77 | |
| 20260510091617 | 44 | 252 | 0.0 | 0.0 | 0.00 | 0.00 | 0.00 | 76 | |
| 20260510091113 | 45 | 237 | 0.0 | 0.0 | 0.00 | 0.00 | 0.00 | 75 | |
| 20260510090611 | 45 | 237 | 0.0 | 0.0 | 0.00 | 0.00 | 0.00 | 74 | |
| 20260510090107 | 46 | 248 | 0.0 | 0.0 | 0.00 | 0.00 | 0.00 | 73 | |
| 20260510085602 | 46 | 246 | 0.0 | 0.0 | 0.00 | 0.00 | 0.00 | 71 | |
| 20260510085058 | 47 | 237 | 0.0 | 0.0 | 0.00 | 0.00 | 0.00 | 70 | |
| 20260510084554 | 48 | 230 | 0.0 | 0.0 | 0.00 | 0.00 | 0.00 | 69 | |
| 20260510084051 | 48 | 216 | 0.0 | 1.0 | 0.00 | 0.00 | 0.00 | 68 | |
| 20260510083548 | 48 | 157 | 1.0 | 2.0 | 0.00 | 0.00 | 0.00 | 68 | |
| 20260510083044 | 48 | 241 | 0.0 | 0.0 | 0.00 | 0.00 | 0.00 | 65 | |
| 20260510082541 | 49 | 248 | 0.0 | 0.0 | 0.00 | 0.00 | 0.00 | 64 | |
| 20260510082036 | 49 | 284 | 0.0 | 1.0 | 0.00 | 0.00 | 0.00 | 63 | |
| 20260510081531 | 49 | 245 | 0.0 | 0.0 | 0.00 | 0.00 | 0.00 | 61 | |
| 20260510081027 | 50 | 21 | 0.0 | 2.0 | 0.00 | 0.00 | 0.00 | 59 | |
| 20260510080526 | 50 | 241 | 0.0 | 3.0 | 0.00 | 0.00 | 0.00 | 57 | |
| 20260510080024 | 50 | 288 | 1.0 | 2.0 | 0.00 | 0.00 | 0.00 | 56 | |
| 20260510075521 | 51 | 248 | 1.0 | 2.0 | 0.00 | 0.00 | 0.00 | 55 | |
| 20260510075017 | 51 | 239 | 0.0 | 1.0 | 0.00 | 0.00 | 0.00 | 55 | |
| 20260510074516 | 51 | 286 | 2.0 | 3.0 | 0.00 | 0.00 | 0.00 | 55 | |
| 20260510074011 | 51 | 289 | 1.0 | 2.0 | 0.00 | 0.00 | 0.00 | 56 | |
| 20260510073507 | 51 | 44 | 1.0 | 2.0 | 0.00 | 0.00 | 0.00 | 56 | |
| 20260510073004 | 51 | 252 | 0.0 | 5.0 | 0.00 | 0.00 | 0.00 | 55 | |
| 20260510072500 | 52 | 263 | 0.0 | 1.0 | 0.00 | 0.00 | 0.00 | 55 | |
| 20260510071956 | 52 | 337 | 3.0 | 3.0 | 0.00 | 0.00 | 0.00 | 55 | |
| 20260510071452 | 52 | 138 | 0.0 | 2.0 | 0.00 | 0.00 | 0.00 | 56 | |
| 20260510070950 | 52 | 254 | 0.0 | 2.0 | 0.00 | 0.00 | 0.00 | 57 | |
| 20260510070447 | 52 | 290 | 1.0 | 2.0 | 0.00 | 0.00 | 0.00 | 57 | |
| 20260510065943 | 52 | 315 | 2.0 | 2.0 | 0.00 | 0.00 | 0.00 | 59 | |
| 20260510065440 | 52 | 3 | 1.0 | 2.0 | 0.00 | 0.00 | 0.00 | 59 | |
| 20260510064936 | 52 | 279 | 1.0 | 2.0 | 0.00 | 0.00 | 0.00 | 59 | |
| 20260510064434 | 52 | 303 | 2.0 | 2.0 | 0.00 | 0.00 | 0.00 | 59 | |
| 20260510063930 | 53 | 276 | 1.0 | 1.0 | 0.00 | 0.00 | 0.00 | 58 | |
| 20260510063426 | 53 | 268 | 1.0 | 3.0 | 0.00 | 0.00 | 0.00 | 57 | |
| 20260510062925 | 53 | 273 | 1.0 | 3.0 | 0.00 | 0.00 | 0.00 | 57 | |
| 20260510062419 | 53 | 305 | 1.0 | 2.0 | 0.00 | 0.00 | 0.00 | 58 | |
| 20260510061915 | 53 | 275 | 1.0 | 1.0 | 0.00 | 0.00 | 0.00 | 57 | |
| 20260510061412 | 53 | 308 | 1.0 | 1.0 | 0.00 | 0.00 | 0.00 | 58 | |
| 20260510060908 | 53 | 265 | 0.0 | 2.0 | 0.00 | 0.00 | 0.00 | 59 | |
| 20260510060405 | 53 | 218 | 0.0 | 1.0 | 0.00 | 0.00 | 0.00 | 60 | |
| 20260510055901 | 53 | 260 | 0.0 | 1.0 | 0.00 | 0.00 | 0.00 | 59 | |
| 20260510055356 | 53 | 246 | 0.0 | 0.0 | 0.00 | 0.00 | 0.00 | 59 | |
| 20260510054854 | 53 | 325 | 0.0 | 0.0 | 0.00 | 0.00 | 0.00 | 58 | |
| 20260510054350 | 53 | 282 | 0.0 | 2.0 | 0.00 | 0.00 | 0.00 | 58 | |
| 20260510053845 | 54 | 251 | 0.0 | 2.0 | 0.00 | 0.00 | 0.00 | 57 | |
| 20260510053341 | 54 | 262 | 1.0 | 1.0 | 0.00 | 0.00 | 0.00 | 57 | |
| 20260510052838 | 54 | 279 | 0.0 | 1.0 | 0.00 | 0.00 | 0.00 | 57 | |
| 20260510052333 | 54 | 236 | 0.0 | 0.0 | 0.00 | 0.00 | 0.00 | 57 | |
| 20260510051830 | 55 | 262 | 1.0 | 1.0 | 0.00 | 0.00 | 0.00 | 57 | |
| 20260510051327 | 55 | 95 | 0.0 | 1.0 | 0.00 | 0.00 | 0.00 | 57 | |
| 20260510050824 | 55 | 7 | 0.0 | 2.0 | 0.00 | 0.00 | 0.00 | 56 | |
| 20260510050320 | 56 | 359 | 1.0 | 2.0 | 0.00 | 0.00 | 0.00 | 55 | |
| 20260510045817 | 56 | 51 | 0.0 | 1.0 | 0.00 | 0.00 | 0.00 | 54 | |
| 20260510045314 | 56 | 54 | 0.0 | 0.0 | 0.00 | 0.00 | 0.00 | 53 | |
| 20260510044811 | 56 | 281 | 1.0 | 1.0 | 0.00 | 0.00 | 0.00 | 52 | |
| 20260510044308 | 56 | 266 | 0.0 | 1.0 | 0.00 | 0.00 | 0.00 | 52 | |
| 20260510043804 | 57 | 288 | 1.0 | 2.0 | 0.00 | 0.00 | 0.00 | 51 | |
| 20260510043300 | 57 | 285 | 0.0 | 3.0 | 0.00 | 0.00 | 0.00 | 51 | |
| 20260510042758 | 57 | 299 | 1.0 | 2.0 | 0.00 | 0.00 | 0.00 | 50 | |
| 20260510042253 | 57 | 278 | 0.0 | 3.0 | 0.00 | 0.00 | 0.00 | 50 | |
| 20260510041750 | 57 | 299 | 1.0 | 2.0 | 0.00 | 0.00 | 0.00 | 49 | |
| 20260510041247 | 58 | 277 | 1.0 | 3.0 | 0.00 | 0.00 | 0.00 | 48 | |
| 20260510040745 | 58 | 310 | 1.0 | 3.0 | 0.00 | 0.00 | 0.00 | 47 | |
| 20260510040236 | 58 | 322 | 2.0 | 5.0 | 0.00 | 0.00 | 0.00 | 47 | |
| 20260510035731 | 59 | 250 | 1.0 | 3.0 | 0.00 | 0.05 | 0.05 | 47 | |
| 20260510035227 | 59 | 257 | 2.0 | 3.0 | 0.00 | 0.05 | 0.05 | 46 | |
| 20260510034723 | 59 | 157 | 1.0 | 6.0 | 0.00 | 0.05 | 0.05 | 46 | |
| 20260510034222 | 60 | 334 | 1.0 | 5.0 | 0.00 | 0.05 | 0.05 | 46 | |
| 20260510033717 | 60 | 295 | 3.0 | 3.0 | 0.00 | 0.05 | 0.05 | 45 | |
| 20260510033215 | 60 | 260 | 3.0 | 10.0 | 0.00 | 0.05 | 0.05 | 44 | |
| 20260510032711 | 60 | 56 | 0.0 | 2.0 | 0.00 | 0.05 | 0.05 | 45 | |
| 20260510032207 | 60 | 292 | 3.0 | 5.0 | 0.00 | 0.05 | 0.05 | 44 | |
| 20260510031702 | 60 | 125 | 5.0 | 9.0 | 0.00 | 0.05 | 0.05 | 44 | |
| 20260510031159 | 61 | 293 | 2.0 | 3.0 | 0.00 | 0.05 | 0.05 | 44 | |
| 20260510030652 | 61 | 76 | 3.0 | 8.0 | 0.00 | 0.05 | 0.05 | 44 | |
| 20260510030151 | 62 | 297 | 3.0 | 8.0 | 0.00 | 0.05 | 0.05 | 43 | |
| 20260510025647 | 62 | 356 | 1.0 | 6.0 | 0.00 | 0.05 | 0.05 | 44 | |
| 20260510025145 | 62 | 339 | 3.0 | 7.0 | 0.00 | 0.05 | 0.05 | 45 | |
| 20260510024642 | 62 | 23 | 4.0 | 5.0 | 0.00 | 0.05 | 0.05 | 46 | |
| 20260510024138 | 62 | 179 | 0.0 | 6.0 | 0.00 | 0.05 | 0.05 | 48 | |
| 20260510023634 | 62 | 252 | 1.0 | 6.0 | 0.00 | 0.05 | 0.05 | 48 | |
| 20260510023132 | 62 | 308 | 4.0 | 8.0 | 0.00 | 0.05 | 0.05 | 47 | |
| 20260510022631 | 62 | 318 | 5.0 | 7.0 | 0.00 | 0.05 | 0.05 | 48 | |
| 20260510022126 | 62 | 326 | 1.0 | 2.0 | 0.00 | 0.05 | 0.05 | 48 | |
| 20260510021622 | 63 | 275 | 1.0 | 2.0 | 0.00 | 0.05 | 0.05 | 48 | |
| 20260510021120 | 63 | 273 | 0.0 | 2.0 | 0.00 | 0.05 | 0.05 | 48 | |
| 20260510020614 | 62 | 275 | 3.0 | 3.0 | 0.00 | 0.05 | 0.05 | 49 | |
| 20260510020109 | 62 | 273 | 0.0 | 1.0 | 0.00 | 0.05 | 0.05 | 50 | |
| 20260510015606 | 62 | 261 | 0.0 | 1.0 | 0.00 | 0.05 | 0.05 | 51 | |
| 20260510015103 | 61 | 271 | 0.0 | 1.0 | 0.00 | 0.05 | 0.05 | 53 | |
| 20260510014558 | 62 | 245 | 0.0 | 0.0 | 0.00 | 0.05 | 0.05 | 49 | |
| 20260510014055 | 62 | 250 | 0.0 | 0.0 | 0.00 | 0.05 | 0.05 | 50 | |
| 20260510013550 | 62 | 251 | 0.0 | 0.0 | 0.00 | 0.05 | 0.05 | 49 | |
| 20260510013046 | 63 | 249 | 0.0 | 0.0 | 0.00 | 0.05 | 0.05 | 47 | |
| 20260510012545 | 63 | 247 | 0.0 | 0.0 | 0.00 | 0.05 | 0.05 | 47 | |
| 20260510012042 | 64 | 249 | 0.0 | 0.0 | 0.00 | 0.05 | 0.05 | 46 | |
| 20260510011541 | 64 | 250 | 0.0 | 0.0 | 0.00 | 0.05 | 0.05 | 46 | |
| 20260510011037 | 64 | 263 | 0.0 | 1.0 | 0.00 | 0.05 | 0.05 | 43 | |
| 20260510010534 | 65 | 271 | 1.0 | 1.0 | 0.00 | 0.05 | 0.05 | 42 | |
| 20260510010031 | 65 | 256 | 0.0 | 2.0 | 0.00 | 0.05 | 0.05 | 41 | |
| 20260510005527 | 65 | 259 | 0.0 | 1.0 | 0.00 | 0.05 | 0.05 | 41 | |
| 20260510005025 | 66 | 260 | 1.0 | 2.0 | 0.00 | 0.05 | 0.05 | 40 | |
| 20260510004522 | 66 | 274 | 1.0 | 1.0 | 0.00 | 0.05 | 0.05 | 40 | |
| 20260510004020 | 66 | 300 | 1.0 | 1.0 | 0.00 | 0.05 | 0.05 | 40 | |
| 20260510003516 | 66 | 254 | 1.0 | 3.0 | 0.00 | 0.05 | 0.05 | 39 | |
| 20260510003012 | 67 | 249 | 0.0 | 2.0 | 0.00 | 0.05 | 0.05 | 39 | |
| 20260510002508 | 67 | 314 | 2.0 | 2.0 | 0.00 | 0.05 | 0.05 | 38 | |
| 20260510002005 | 67 | 281 | 1.0 | 2.0 | 0.00 | 0.05 | 0.05 | 38 | |
| 20260510001502 | 67 | 272 | 1.0 | 2.0 | 0.00 | 0.05 | 0.05 | 38 | |
| 20260510001000 | 68 | 260 | 1.0 | 2.0 | 0.00 | 0.05 | 0.05 | 37 | |
| 20260510000455 | 68 | 313 | 1.0 | 2.0 | 0.00 | 0.05 | 0.05 | 36 | |
| 20260509235952 | 68 | 266 | 1.0 | 2.0 | 0.00 | 0.05 | 0.05 | 37 | |
| 20260509235449 | 68 | 249 | 1.0 | 6.0 | 0.00 | 0.05 | 0.05 | 36 | |
| 20260509234945 | 68 | 236 | 3.0 | 7.0 | 0.00 | 0.05 | 0.05 | 35 | |
| 20260509234442 | 68 | 324 | 2.0 | 5.0 | 0.00 | 0.05 | 0.05 | 35 | |
| 20260509233940 | 69 | 273 | 4.0 | 9.0 | 0.00 | 0.05 | 0.05 | 35 | |
| 20260509233437 | 69 | 258 | 3.0 | 8.0 | 0.00 | 0.05 | 0.05 | 34 | |
| 20260509232933 | 69 | 300 | 3.0 | 8.0 | 0.00 | 0.05 | 0.05 | 34 | |
| 20260509232431 | 69 | 255 | 3.0 | 10.0 | 0.00 | 0.05 | 0.05 | 35 | |
| 20260509231926 | 69 | 256 | 4.0 | 8.0 | 0.00 | 0.05 | 0.05 | 35 | |
| 20260509231423 | 69 | 264 | 2.0 | 6.0 | 0.00 | 0.05 | 0.05 | 34 | |
| 20260509230922 | 69 | 294 | 4.0 | 7.0 | 0.00 | 0.05 | 0.05 | 34 | |
| 20260509230418 | 70 | 245 | 2.0 | 7.0 | 0.00 | 0.05 | 0.05 | 34 | |
| 20260509225914 | 70 | 280 | 3.0 | 7.0 | 0.00 | 0.05 | 0.05 | 34 | |
| 20260509225411 | 70 | 338 | 6.0 | 8.0 | 0.00 | 0.05 | 0.05 | 33 | |
| 20260509224907 | 70 | 4 | 5.0 | 9.0 | 0.00 | 0.05 | 0.05 | 33 | |
| 20260509224402 | 70 | 277 | 7.0 | 9.0 | 0.00 | 0.05 | 0.05 | 33 | |
| 20260509223900 | 70 | 279 | 5.0 | 11.0 | 0.00 | 0.05 | 0.05 | 34 | |
| 20260509223356 | 70 | 348 | 7.0 | 10.0 | 0.00 | 0.05 | 0.05 | 35 | |
| 20260509222854 | 71 | 305 | 6.0 | 10.0 | 0.00 | 0.05 | 0.05 | 34 | |
| 20260509222349 | 71 | 269 | 8.0 | 14.0 | 0.00 | 0.05 | 0.05 | 34 | |
| 20260509221844 | 71 | 325 | 6.0 | 8.0 | 0.00 | 0.05 | 0.05 | 36 | |
| 20260509221342 | 71 | 231 | 3.0 | 8.0 | 0.00 | 0.05 | 0.05 | 38 | |
| 20260509220837 | 71 | 277 | 6.0 | 8.0 | 0.00 | 0.05 | 0.05 | 41 | |
| 20260509220334 | 70 | 244 | 4.0 | 7.0 | 0.00 | 0.05 | 0.05 | 42 | |
| 20260509215829 | 70 | 256 | 3.0 | 8.0 | 0.00 | 0.05 | 0.05 | 42 | |
| 20260509215326 | 71 | 276 | 5.0 | 8.0 | 0.00 | 0.05 | 0.05 | 41 | |
| 20260509214823 | 71 | 288 | 1.0 | 6.0 | 0.00 | 0.05 | 0.05 | 46 | |
| 20260509214320 | 72 | 245 | 4.0 | 8.0 | 0.00 | 0.05 | 0.05 | 42 | |
| 20260509213817 | 73 | 262 | 3.0 | 10.0 | 0.00 | 0.05 | 0.05 | 41 | |
| 20260509213312 | 72 | 230 | 2.0 | 8.0 | 0.00 | 0.05 | 0.05 | 41 | |
| 20260509212810 | 72 | 269 | 2.0 | 7.0 | 0.00 | 0.05 | 0.05 | 42 | |
| 20260509212308 | 72 | 260 | 2.0 | 9.0 | 0.00 | 0.05 | 0.05 | 43 | |
| 20260509211803 | 72 | 266 | 3.0 | 6.0 | 0.00 | 0.05 | 0.05 | 44 | |
| 20260509211259 | 72 | 266 | 3.0 | 3.0 | 0.00 | 0.05 | 0.05 | 46 | |
| 20260509210756 | 72 | 227 | 2.0 | 5.0 | 0.00 | 0.05 | 0.05 | 48 | |
| 20260509210253 | 71 | 262 | 1.0 | 3.0 | 0.00 | 0.05 | 0.05 | 50 | |
| 20260509205752 | 71 | 243 | 3.0 | 5.0 | 0.00 | 0.05 | 0.05 | 52 | |
| 20260509205242 | 71 | 346 | 1.0 | 3.0 | 0.00 | 0.05 | 0.05 | 53 | |
| 20260509204738 | 70 | 262 | 4.0 | 6.0 | 0.00 | 0.05 | 0.05 | 55 | |
| 20260509204235 | 70 | 292 | 5.0 | 8.0 | 0.00 | 0.05 | 0.05 | 58 | |
| 20260509203731 | 69 | 259 | 5.0 | 6.0 | 0.00 | 0.05 | 0.05 | 62 | |
| 20260509203229 | 66 | 272 | 3.0 | 6.0 | 0.00 | 0.05 | 0.05 | 66 | |
| 20260509202725 | 66 | 268 | 2.0 | 9.0 | 0.00 | 0.05 | 0.05 | 67 | |
| 20260509202221 | 65 | 282 | 3.0 | 3.0 | 0.00 | 0.05 | 0.05 | 68 | |
| 20260509201715 | 65 | 326 | 2.0 | 5.0 | 0.00 | 0.05 | 0.05 | 69 | |
| 20260509201212 | 65 | 303 | 5.0 | 7.0 | 0.00 | 0.05 | 0.05 | 69 | |
| 20260509200709 | 63 | 294 | 1.0 | 2.0 | 0.00 | 0.05 | 0.05 | 72 | |
| 20260509200203 | 63 | 258 | 1.0 | 5.0 | 0.00 | 0.05 | 0.05 | 72 | |
| 20260509195659 | 62 | 295 | 3.0 | 5.0 | 0.00 | 0.05 | 0.05 | 71 | |
| 20260509195155 | 63 | 283 | 3.0 | 3.0 | 0.00 | 0.05 | 0.05 | 69 | |
| 20260509194649 | 64 | 33 | 6.0 | 8.0 | 0.00 | 0.05 | 0.05 | 64 | |
| 20260509194146 | 66 | 256 | 5.0 | 14.0 | 0.00 | 0.05 | 0.05 | 62 | |
| 20260509193642 | 65 | 267 | 3.0 | 7.0 | 0.00 | 0.05 | 0.05 | 64 | |
| 20260509193138 | 64 | 279 | 1.0 | 6.0 | 0.00 | 0.05 | 0.05 | 73 | |
| 20260509192635 | 63 | 194 | 1.0 | 2.0 | 0.00 | 0.05 | 0.05 | 77 | |
| 20260509192130 | 63 | 294 | 5.0 | 7.0 | 0.00 | 0.05 | 0.05 | 78 | |
| 20260509191629 | 62 | 217 | 3.0 | 7.0 | 0.19 | 0.05 | 0.05 | 78 | |
| 20260509191127 | 62 | 274 | 3.0 | 6.0 | 0.31 | 0.05 | 0.05 | 78 | |
| 20260509190623 | 63 | 239 | 2.0 | 8.0 | 0.12 | 0.02 | 0.02 | 72 | |
| 20260509190120 | 68 | 238 | 1.0 | 6.0 | 0.00 | 0.00 | 0.00 | 58 | |
| 20260509185618 | 70 | 307 | 2.0 | 7.0 | 0.00 | 0.00 | 0.00 | 57 | |
| 20260509185114 | 71 | 227 | 3.0 | 7.0 | 0.00 | 0.00 | 0.00 | 47 | |
| 20260509184612 | 72 | 269 | 5.0 | 8.0 | 0.00 | 0.00 | 0.00 | 46 | |
| 20260509184109 | 72 | 252 | 5.0 | 8.0 | 0.00 | 0.00 | 0.00 | 45 | |
| 20260509183604 | 72 | 242 | 3.0 | 11.0 | 0.00 | 0.00 | 0.00 | 44 | |
| 20260509183100 | 72 | 315 | 3.0 | 5.0 | 0.00 | 0.00 | 0.00 | 46 | |
| 20260509182556 | 74 | 240 | 5.0 | 8.0 | 0.00 | 0.00 | 0.00 | 46 | |
| 20260509182053 | 72 | 293 | 5.0 | 9.0 | 0.00 | 0.00 | 0.00 | 47 | |
| 20260509181552 | 71 | 254 | 1.0 | 2.0 | 0.00 | 0.00 | 0.00 | 50 | |
| 20260509181049 | 72 | 293 | 1.0 | 3.0 | 0.00 | 0.00 | 0.00 | 47 | |
| 20260509180544 | 71 | 270 | 6.0 | 10.0 | 0.00 | 0.00 | 0.00 | 47 | |
| 20260509180042 | 71 | 331 | 4.0 | 7.0 | 0.00 | 0.00 | 0.00 | 47 | |
| 20260509175537 | 71 | 245 | 3.0 | 10.0 | 0.00 | 0.00 | 0.00 | 47 | |
| 20260509175035 | 71 | 284 | 2.0 | 8.0 | 0.00 | 0.00 | 0.00 | 48 | |
| 20260509174531 | 71 | 208 | 1.0 | 5.0 | 0.00 | 0.00 | 0.00 | 48 | |
| 20260509174026 | 71 | 219 | 4.0 | 21.0 | 0.00 | 0.00 | 0.00 | 49 | |
| 20260509173520 | 71 | 264 | 2.0 | 7.0 | 0.00 | 0.00 | 0.00 | 49 | |
| 20260509173011 | 70 | 315 | 3.0 | 5.0 | 0.00 | 0.00 | 0.00 | 49 | |
| 20260509172509 | 70 | 351 | 2.0 | 3.0 | 0.00 | 0.00 | 0.00 | 48 | |
| 20260509172004 | 71 | 238 | 2.0 | 7.0 | 0.00 | 0.00 | 0.00 | 49 | |
| 20260509171500 | 69 | 190 | 1.0 | 7.0 | 0.00 | 0.00 | 0.00 | 50 | |
| 20260509170957 | 68 | 167 | 3.0 | 7.0 | 0.00 | 0.00 | 0.00 | 51 | |
| 20260509170452 | 68 | 282 | 4.0 | 5.0 | 0.00 | 0.00 | 0.00 | 52 | |
| 20260509165948 | 69 | 222 | 4.0 | 10.0 | 0.00 | 0.00 | 0.00 | 51 | |
| 20260509165447 | 69 | 274 | 5.0 | 13.0 | 0.00 | 0.00 | 0.00 | 51 | |
| 20260509164943 | 68 | 272 | 2.0 | 3.0 | 0.00 | 0.00 | 0.00 | 53 | |
| 20260509164439 | 68 | 234 | 2.0 | 6.0 | 0.00 | 0.00 | 0.00 | 52 | |
| 20260509163935 | 68 | 268 | 1.0 | 3.0 | 0.00 | 0.00 | 0.00 | 52 | |
| 20260509163433 | 68 | 267 | 2.0 | 10.0 | 0.00 | 0.00 | 0.00 | 53 | |
| 20260509162932 | 68 | 288 | 1.0 | 8.0 | 0.00 | 0.00 | 0.00 | 54 | |
| 20260509162431 | 68 | 248 | 6.0 | 11.0 | 0.00 | 0.00 | 0.00 | 52 | |
| 20260509161926 | 71 | 231 | 5.0 | 9.0 | 0.00 | 0.00 | 0.00 | 49 | |
| 20260509161423 | 69 | 228 | 3.0 | 6.0 | 0.00 | 0.00 | 0.00 | 54 | |
| 20260509160918 | 70 | 289 | 1.0 | 5.0 | 0.00 | 0.00 | 0.00 | 54 | |
| 20260509160414 | 69 | 261 | 2.0 | 3.0 | 0.00 | 0.00 | 0.00 | 53 | |
| 20260509155909 | 69 | 354 | 1.0 | 7.0 | 0.00 | 0.00 | 0.00 | 55 | |
| 20260509155407 | 70 | 262 | 2.0 | 5.0 | 0.00 | 0.00 | 0.00 | 55 | |
| 20260509154903 | 68 | 284 | 5.0 | 7.0 | 0.00 | 0.00 | 0.00 | 59 | |
| 20260509154400 | 68 | 259 | 3.0 | 9.0 | 0.00 | 0.00 | 0.00 | 60 | |
| 20260509153856 | 68 | 297 | 2.0 | 3.0 | 0.00 | 0.00 | 0.00 | 60 | |
| 20260509153354 | 67 | 199 | 3.0 | 7.0 | 0.00 | 0.00 | 0.00 | 62 | |
| 20260509152850 | 68 | 195 | 4.0 | 5.0 | 0.00 | 0.00 | 0.00 | 62 | |
| 20260509152346 | 67 | 267 | 3.0 | 5.0 | 0.00 | 0.00 | 0.00 | 63 | |
| 20260509151844 | 67 | 245 | 2.0 | 3.0 | 0.00 | 0.00 | 0.00 | 63 | |
| 20260509151339 | 66 | 155 | 3.0 | 3.0 | 0.00 | 0.00 | 0.00 | 63 | |
| 20260509150838 | 66 | 233 | 4.0 | 5.0 | 0.00 | 0.00 | 0.00 | 64 | |
| 20260509150335 | 67 | 41 | 1.0 | 3.0 | 0.00 | 0.00 | 0.00 | 64 | |
| 20260509145832 | 67 | 197 | 3.0 | 5.0 | 0.00 | 0.00 | 0.00 | 62 | |
| 20260509145327 | 68 | 160 | 1.0 | 2.0 | 0.00 | 0.00 | 0.00 | 65 | |
| 20260509144824 | 66 | 195 | 3.0 | 5.0 | 0.00 | 0.00 | 0.00 | 64 | |
| 20260509144321 | 66 | 104 | 1.0 | 5.0 | 0.00 | 0.00 | 0.00 | 65 | |
| 20260509143818 | 65 | 220 | 2.0 | 5.0 | 0.00 | 0.00 | 0.00 | 66 | |
| 20260509143316 | 65 | 219 | 1.0 | 5.0 | 0.00 | 0.00 | 0.00 | 67 | |
| 20260509142811 | 65 | 279 | 2.0 | 5.0 | 0.00 | 0.00 | 0.00 | 67 |